sat.trackr.live / text

‹ back to catalog

STARLINK-31699

NORAD 59551 · 2024-074T

PAYLOAD ACTIVE UNKNOWN

§ Identity

Operator
Country
US
Launch date
2024-04-18
Launch site
AFETR
Launch vehicle
Mass (kg)
RCS (m²)

Purposes: comms

External: N2YO · Heavens-Above · Gunter

§ Orbital elements

Epoch: 2026-09-21T10:37:34.340448Z

Period
94.27 min
Inclination
43.0036°
Eccentricity
0.0001555
Mean motion
15.27576865 rev/d
Perigee alt
482.0 km
Apogee alt
484.1 km
Semi-major
6,861.2 km
B*
1.4904e-5
RAAN
317.8913°
Arg perigee
277.5488°
Mean anomaly
82.5187°
Rev number
13,595

§ Raw data

STARLINK-316991 59551U 24074T   26264.44275857  .00000148  00000+0  14904-4 0  99982 59551  43.0036 317.8913 0001555 277.5488  82.5187 15.27576865135958

JSON: /api/v1/satellites/59551 · /tle

For live sub-satellite position, see the globe view (requires WebGL).

§ Visibility from observer

Set your observer location to see the next 7 days of passes ≥ 10°. The values pass through the URL so the page stays shareable.

No JS? Fill the form by hand. The geolocation button needs JavaScript.